TimeEDT,TemperatureF,Dew PointF,Humidity,Sea Level PressureIn,VisibilityMPH,Wind Direction,Wind SpeedMPH,Gust SpeedMPH,PrecipitationIn,Events,Conditions,WindDirDegrees,DateUTC
12:54 AM,26.1,18.0,71,29.82,10.0,Calm,Calm,-,N/A,,Clear,0,2013-03-27 04:54:00
1:54 AM,24.1,18.0,77,29.83,10.0,Calm,Calm,-,N/A,,Clear,0,2013-03-27 05:54:00
2:54 AM,24.1,18.0,77,29.81,10.0,Calm,Calm,-,N/A,,Clear,0,2013-03-27 06:54:00
3:54 AM,21.9,18.0,85,29.81,10.0,Calm,Calm,-,N/A,,Clear,0,2013-03-27 07:54:00
4:54 AM,21.9,18.0,85,29.81,10.0,Calm,Calm,-,N/A,,Clear,0,2013-03-27 08:54:00
5:54 AM,24.1,19.0,81,29.81,10.0,Calm,Calm,-,N/A,,Overcast,0,2013-03-27 09:54:00
6:54 AM,25.0,21.0,85,29.82,10.0,South,4.6,-,N/A,,Overcast,180,2013-03-27 10:54:00
7:54 AM,28.0,21.0,75,29.83,10.0,Calm,Calm,-,N/A,,Overcast,0,2013-03-27 11:54:00
8:54 AM,32.0,23.0,69,29.83,10.0,South,6.9,-,N/A,,Overcast,180,2013-03-27 12:54:00
9:54 AM,39.9,21.0,47,29.83,10.0,NW,10.4,-,N/A,,Overcast,310,2013-03-27 13:54:00
10:54 AM,43.0,21.0,42,29.82,10.0,NW,12.7,18.4,N/A,,Mostly Cloudy,310,2013-03-27 14:54:00
11:54 AM,46.9,19.9,34,29.81,10.0,NW,10.4,23.0,N/A,,Partly Cloudy,320,2013-03-27 15:54:00
12:54 PM,46.9,19.0,33,29.81,10.0,NW,13.8,25.3,N/A,,Mostly Cloudy,310,2013-03-27 16:54:00
1:54 PM,46.9,19.0,33,29.81,10.0,NW,12.7,19.6,N/A,,Mostly Cloudy,310,2013-03-27 17:54:00
2:54 PM,46.9,19.9,34,29.81,10.0,WNW,10.4,17.3,N/A,,Overcast,300,2013-03-27 18:54:00
3:54 PM,46.0,19.0,34,29.81,10.0,WNW,11.5,16.1,N/A,,Overcast,300,2013-03-27 19:54:00
4:54 PM,46.0,21.9,39,29.83,10.0,WNW,8.1,-,N/A,,Overcast,290,2013-03-27 20:54:00
5:54 PM,46.9,21.0,36,29.84,10.0,NNW,8.1,-,N/A,,Overcast,330,2013-03-27 21:54:00
6:54 PM,44.1,21.9,42,29.86,10.0,Variable,4.6,-,N/A,,Scattered Clouds,0,2013-03-27 22:54:00
7:54 PM,43.0,21.0,42,29.88,10.0,North,6.9,-,N/A,,Scattered Clouds,360,2013-03-27 23:54:00
8:54 PM,42.1,23.0,47,29.91,10.0,Variable,4.6,-,N/A,,Mostly Cloudy,0,2013-03-28 00:54:00
9:54 PM,39.9,26.1,58,29.92,10.0,NNE,5.8,-,N/A,,Overcast,20,2013-03-28 01:54:00
10:54 PM,39.0,27.0,62,29.92,10.0,North,4.6,-,N/A,,Overcast,10,2013-03-28 02:54:00
11:54 PM,37.0,27.0,67,29.92,10.0,Calm,Calm,-,N/A,,Overcast,0,2013-03-28 03:54:00